2017-008BU

Last updated on Wed Mar 01 2017 00:15:03 GMT+0000 (Coordinated Universal Time)

1 42014U 17008BU 17059.08880859 .00001558 00000-0 70873-4 0 9993 2 42014 97.5103 120.7068 0006207 231.8311 128.2364 15.22237794 1915
UTC large
Height (km)
Speed (km/s)
/
Latitude / Longitude
Inclination (degrees)
Orbital Period (minutes)
Azimuth
Elevation
Range (km)
Doppler Factor

Next 0 passes for location: London (51.5072 / 0.1276)

Sorry there are no passes over London.